2021-033A (48248 NORAD) Tracking and Keplerian Element Data

This shows tracking and keplerian element data for the satellite.

Feedback or suggestion? Click here.




ElementValue
Catalog48248
Name2021-033A
Epoch Orbit458
Epoch Day147.26730228
Epoch Year2021
RAAN222.5797
Inclination97.397
Eccentricity0.0012676
Argument of Perigee153.5721
Mean Anonmoly291.5889
Mean Motion15.20869458
Decay Rate1.123E-05
L11 48248U 21033A 21147.26730228 .00001123 00000-0 53871-4 0 9995
L22 48248 97.3970 222.5797 0012676 153.5721 291.5889 15.20869458 4580

Live tracking and technical data element details for 2021-033A (NORAD 48248). 2021-033A can be tracked NOW for your location showing map with azimuth and elevation plus other details from your city location.

Track the satellite on the map from your city or location and see movement details for azimuth, elevation, latitude, longitude, range, height, and movement on the map or in text.







IsCatalogInMostPopularTable: catalog: 48248, numindb: 21
Update: records affected: 1



GetName: 48248 2021-033A

Hit Count: updated at: Mon, 21 Jun 2021 03:41:09 GMT